Regional Weather Roundup
Issued by NWS

Home | Current Version | Previous Version | Text Only | Print | Product List | Glossary On
Versions: 1 2 3 4 5 6 7 8 9 10 11 12 13 14 15 16 17 18 19 20 21 22 23 24 25 26 27 28 29 30 31 32 33 34 35 36 37 38 39 40 41 42 43 44 45 46 47 48 49 50
008
ASUS44 KJAN 232010
RWRMS

MISSISSIPPI HOURLY WEATHER ROUNDUP
NATIONAL WEATHER SERVICE JACKSON MS
200 PM CST SUN NOV 23 2014

NOTE: "FAIR: INDICATES FEW OR NO CLOUDS BELOW 12,000 FEET WITH NO
SIGNIFICANT WEATHER AND/OR OBSTRUCTIONS TO VISIBILITY.

MSZ001>002-007>008-010>013-018>021-025>028-034>036-232100-
NORTHWEST MISSISSIPPI

CITY           SKY/WX    TMP DP  RH WIND       PRES   REMARKS
CLARKSDALE     CLOUDY    63  63 100 E5        29.33F VSB 3/4
CLEVELAND      CLOUDY    63  63 100 MISG      29.34R
GREENWOOD      LGT RAIN  64  60  87 S30G44    29.38F FOG
GREENVILLE     CLOUDY    63  60  90 W18G25    29.41R
GRENADA        CLOUDY    64  61  88 S15G24    29.36F
OLIVE BRANCH   RAIN      59  59 100 SE9       29.36F FOG
OXFORD         PTSUNNY   59  59 100 S7G16     29.38F
TUNICA         CLOUDY    63  61  94 SE6       29.35F
$$

MSZ003>006-009-014>017-022>024-029>033-037>039-232100-
NORTHEAST MISSISSIPPI

CITY           SKY/WX    TMP DP  RH WIND       PRES   REMARKS
COLUMBUS AFB   CLOUDY    67  62  85 S14       29.45F
CORINTH        DRIZZLE   61  59  94 SE9       29.40F
GOLDN TRIANGLE PTSUNNY   66  63  88 S17G23    29.45F
STARKVILLE     CLOUDY    68  61  77 S12G23    29.45F
TUPELO         CLOUDY    64  61  90 MISG      29.41F
$$

MSZ040-058-232100-
CENTRAL MISSISSIPPI

CITY           SKY/WX    TMP DP  RH WIND       PRES   REMARKS
JACKSON INTL   CLOUDY    68  58  70 SW14      29.50F
JACKSON HAWKNS CLOUDY    68  57  68 SW16G23   29.50F
MERIDIAN KEY   LGT RAIN  67  58  72 SW16G32   29.53F
MERIDIAN NAS   CLOUDY    68  58  70 S15G26    29.52F
RAYMOND        MOCLDY    68  63  83 SW17      29.50F
VICKSBURG      CLOUDY    67  60  78 SW10G20   29.49F
$$

MSZ059>079-232100-
SOUTH MISSISSIPPI

CITY           SKY/WX    TMP DP  RH WIND       PRES   REMARKS
BROOKHAVEN     MOCLDY    70  59  68 SW12G22   29.56F
HATTIESBURG    PTSUNNY   70  59  68 SW17G29   29.60F
MCCOMB         CLOUDY    70  59  68 S12G24    29.57F
NATCHEZ        MOSUNNY   72  59  64 SW13G21   29.52F
PINE BELT      CLOUDY    66  57  72 SW10G20   29.59F
$$

MSZ080>082-232100-
COASTAL MISSISSIPPI

CITY           SKY/WX    TMP DP  RH WIND       PRES   REMARKS
BAY ST LOUIS   MOSUNNY   72  59  64 MISG      29.64F
BILOXI         SUNNY     65  61  85 SW15      29.66S
PASCAGOULA     PTSUNNY   67  60  78 S14G22    29.68F
GULFPORT       MOSUNNY   68  60  75 SW10G20   29.65F
$$



USA.gov is the U.S. government's official web portal to all federal, state and local government web resources and services.